TimeCST,TemperatureF,Dew PointF,Humidity,Sea Level PressureIn,VisibilityMPH,Wind Direction,Wind SpeedMPH,Gust SpeedMPH,PrecipitationIn,Events,Conditions,WindDirDegrees,DateUTC
12:15 AM,28.4,21.2,74,30.17,10.0,North,15.0,21.9,N/A,,Overcast,10,2014-03-08 06:15:00
12:35 AM,28.0,21.6,77,30.17,10.0,North,20.7,25.3,N/A,,Overcast,360,2014-03-08 06:35:00
12:55 AM,27.9,21.2,76,30.18,10.0,North,17.3,26.5,N/A,,Overcast,360,2014-03-08 06:55:00
1:15 AM,27.9,21.2,76,30.19,10.0,North,18.4,25.3,N/A,,Overcast,360,2014-03-08 07:15:00
1:35 AM,27.7,20.8,75,30.19,10.0,North,17.3,24.2,N/A,,Overcast,360,2014-03-08 07:35:00
1:55 AM,27.5,20.8,76,30.19,10.0,North,13.8,-,N/A,,Overcast,360,2014-03-08 07:55:00
2:15 AM,27.9,19.6,71,30.20,10.0,North,17.3,-,N/A,,Overcast,360,2014-03-08 08:15:00
2:35 AM,27.1,19.9,74,30.21,10.0,North,17.3,25.3,N/A,,Overcast,360,2014-03-08 08:35:00
2:55 AM,26.4,21.0,80,30.20,10.0,North,12.7,-,N/A,,Overcast,360,2014-03-08 08:55:00
3:15 AM,26.6,17.6,69,30.21,10.0,North,17.3,23.0,N/A,,Overcast,10,2014-03-08 09:15:00
3:35 AM,26.6,17.6,69,30.21,10.0,North,15.0,21.9,N/A,,Overcast,10,2014-03-08 09:35:00
3:55 AM,25.9,17.4,70,30.22,10.0,North,19.6,-,N/A,,Overcast,360,2014-03-08 09:55:00
4:15 AM,25.5,17.1,70,30.22,10.0,North,16.1,-,N/A,,Overcast,360,2014-03-08 10:15:00
4:35 AM,24.8,16.7,71,30.24,10.0,North,13.8,-,N/A,,Overcast,360,2014-03-08 10:35:00
4:55 AM,23.9,16.5,73,30.24,10.0,North,16.1,-,N/A,,Overcast,360,2014-03-08 10:55:00
5:15 AM,23.9,16.7,74,30.24,10.0,North,13.8,18.4,N/A,,Overcast,10,2014-03-08 11:15:00
5:35 AM,23.9,16.7,74,30.25,10.0,North,15.0,-,N/A,,Overcast,360,2014-03-08 11:35:00
5:55 AM,23.4,16.3,75,30.27,10.0,North,16.1,-,N/A,,Overcast,360,2014-03-08 11:55:00
6:15 AM,23.0,15.8,74,30.27,10.0,North,12.7,19.6,N/A,,Overcast,10,2014-03-08 12:15:00
6:35 AM,22.1,15.8,77,30.27,10.0,North,12.7,-,N/A,,Overcast,360,2014-03-08 12:35:00
6:55 AM,21.9,15.6,77,30.28,10.0,North,13.8,-,N/A,,Mostly Cloudy,360,2014-03-08 12:55:00
7:15 AM,21.7,15.8,78,30.29,10.0,North,11.5,-,N/A,,Scattered Clouds,360,2014-03-08 13:15:00
7:35 AM,21.9,15.8,77,30.29,10.0,North,11.5,17.3,N/A,,Clear,360,2014-03-08 13:35:00
7:55 AM,22.1,15.8,77,30.30,10.0,North,12.7,-,N/A,,Clear,10,2014-03-08 13:55:00
8:15 AM,22.5,15.8,76,30.30,10.0,North,13.8,-,N/A,,Clear,360,2014-03-08 14:15:00
8:35 AM,23.0,16.0,74,30.32,10.0,North,11.5,-,N/A,,Scattered Clouds,10,2014-03-08 14:35:00
8:55 AM,23.5,16.0,73,30.32,10.0,North,12.7,-,N/A,,Scattered Clouds,360,2014-03-08 14:55:00
9:15 AM,24.4,16.5,72,30.33,10.0,North,10.4,-,N/A,,Clear,360,2014-03-08 15:15:00
9:35 AM,26.1,16.5,67,30.33,10.0,North,10.4,-,N/A,,Clear,360,2014-03-08 15:35:00
9:55 AM,28.0,17.2,64,30.33,10.0,North,10.4,-,N/A,,Clear,10,2014-03-08 15:55:00
10:15 AM,28.4,17.2,63,30.33,10.0,North,10.4,-,N/A,,Clear,10,2014-03-08 16:15:00
10:35 AM,29.8,16.9,59,30.33,10.0,North,9.2,-,N/A,,Clear,10,2014-03-08 16:35:00
10:55 AM,31.1,16.5,55,30.34,10.0,North,9.2,-,N/A,,Clear,360,2014-03-08 16:55:00
11:15 AM,31.6,16.5,54,30.34,10.0,North,11.5,-,N/A,,Clear,360,2014-03-08 17:15:00
11:35 AM,32.0,16.2,52,30.34,10.0,North,9.2,-,N/A,,Clear,360,2014-03-08 17:35:00
11:55 AM,33.3,16.0,49,30.33,10.0,North,8.1,-,N/A,,Clear,10,2014-03-08 17:55:00
12:15 PM,34.2,16.2,48,30.33,10.0,North,6.9,-,N/A,,Clear,350,2014-03-08 18:15:00
12:35 PM,35.4,16.0,45,30.33,10.0,NNE,5.8,-,N/A,,Clear,20,2014-03-08 18:35:00
12:55 PM,36.0,15.3,43,30.32,10.0,North,10.4,-,N/A,,Clear,360,2014-03-08 18:55:00
1:15 PM,37.2,15.1,40,30.31,10.0,North,8.1,-,N/A,,Clear,360,2014-03-08 19:15:00
1:35 PM,39.2,15.1,37,30.30,10.0,NNW,9.2,17.3,N/A,,Clear,330,2014-03-08 19:35:00
1:55 PM,39.4,14.5,36,30.29,10.0,North,8.1,-,N/A,,Clear,10,2014-03-08 19:55:00
2:15 PM,39.9,13.3,34,30.29,10.0,North,8.1,16.1,N/A,,Clear,350,2014-03-08 20:15:00
2:35 PM,40.8,14.2,34,30.28,10.0,NNW,6.9,-,N/A,,Clear,330,2014-03-08 20:35:00
2:55 PM,41.4,13.6,32,30.28,10.0,North,8.1,-,N/A,,Clear,360,2014-03-08 20:55:00
3:15 PM,41.7,13.8,32,30.28,10.0,North,8.1,-,N/A,,Clear,350,2014-03-08 21:15:00
3:35 PM,42.3,13.5,31,30.27,10.0,North,8.1,-,N/A,,Clear,10,2014-03-08 21:35:00
3:55 PM,42.6,12.9,30,30.27,10.0,NNW,3.5,-,N/A,,Clear,330,2014-03-08 21:55:00
4:15 PM,42.3,12.0,29,30.27,10.0,North,4.6,-,N/A,,Clear,360,2014-03-08 22:15:00
4:35 PM,42.4,12.0,29,30.28,10.0,NNW,4.6,-,N/A,,Clear,340,2014-03-08 22:35:00
4:55 PM,42.4,11.3,28,30.28,10.0,Calm,Calm,-,N/A,,Clear,0,2014-03-08 22:55:00
5:15 PM,42.1,11.8,29,30.28,10.0,North,4.6,-,N/A,,Clear,350,2014-03-08 23:15:00
5:35 PM,41.7,12.2,30,30.28,10.0,North,4.6,-,N/A,,Clear,350,2014-03-08 23:35:00
5:55 PM,40.5,12.2,32,30.28,10.0,NW,3.5,-,N/A,,Clear,320,2014-03-08 23:55:00
6:15 PM,40.1,11.7,31,30.28,10.0,Calm,Calm,-,N/A,,Clear,0,2014-03-09 00:15:00
6:35 PM,35.1,12.2,39,30.29,10.0,Calm,Calm,-,N/A,,Clear,0,2014-03-09 00:35:00
6:55 PM,37.0,12.7,37,30.29,10.0,Calm,Calm,-,N/A,,Clear,0,2014-03-09 00:55:00
7:15 PM,34.5,12.9,41,30.29,10.0,Calm,Calm,-,N/A,,Clear,0,2014-03-09 01:15:00
7:30 PM,35.2,12.9,40,30.29,10.0,Calm,Calm,-,N/A,,Clear,0,2014-03-09 01:30:00
7:55 PM,31.3,13.6,48,30.29,10.0,Calm,Calm,-,N/A,,Clear,0,2014-03-09 01:55:00
8:15 PM,30.7,13.8,50,30.29,10.0,Calm,Calm,-,N/A,,Clear,0,2014-03-09 02:15:00
8:35 PM,31.8,13.8,47,30.29,10.0,Calm,Calm,-,N/A,,Clear,0,2014-03-09 02:35:00
8:55 PM,31.1,14.4,50,30.30,10.0,Calm,Calm,-,N/A,,Clear,0,2014-03-09 02:55:00
9:15 PM,27.3,14.7,59,30.30,10.0,Calm,Calm,-,N/A,,Clear,0,2014-03-09 03:15:00
9:35 PM,27.3,14.4,58,30.30,10.0,Calm,Calm,-,N/A,,Clear,0,2014-03-09 03:35:00
9:55 PM,26.1,14.0,60,30.30,10.0,Calm,Calm,-,N/A,,Clear,0,2014-03-09 03:55:00
10:15 PM,27.0,14.5,60,30.30,10.0,Calm,Calm,-,N/A,,Clear,0,2014-03-09 04:15:00
10:35 PM,26.1,14.7,62,30.30,10.0,Calm,Calm,-,N/A,,Clear,0,2014-03-09 04:35:00
10:55 PM,24.8,14.7,66,30.29,10.0,Calm,Calm,-,N/A,,Clear,0,2014-03-09 04:55:00
11:15 PM,26.1,14.9,63,30.29,10.0,South,3.5,-,N/A,,Clear,180,2014-03-09 05:15:00
11:35 PM,27.1,15.1,60,30.29,10.0,South,5.8,-,N/A,,Clear,180,2014-03-09 05:35:00
11:55 PM,26.8,15.8,63,30.29,10.0,South,5.8,-,N/A,,Clear,180,2014-03-09 05:55:00